Wind_Speed
6 3 8 9 10 10 14 15 13 11 12 9 15 18 24 21 19 23 21 18 18 20 17 24 36 37 35 39 38 31 35 30 26 21 21 14 17 20 19 20 15 15 13 6
6 11 9 10 13 12 17 16 16 14 14 9 9 13 20 18 21 25 23 14 15 21 18 20 29 36 34 39 38 35 34 33 30 27 24 17 14 18 14 19 15 14 13 10
10 11 18 15 12 15 15 11 13 12 19 14 6 4 9 12 8 9 7 9 4 24 21 18 21 34 33 37 40 38 33 38 32 30 25 19 15 17 16 20 20 17 13 11
10 15 15 16 16 14 9 10 12 14 10 5 5 4 6 12 8 15 12 8 5 12 23 19 20 31 34 38 43 39 37 38 36 31 30 25 18 18 16 27 23 19 15 13
8 11 12 16 13 15 12 10 9 10 9 5 18 3 6 16 7 7 15 9 11 16 19 24 24 29 35 38 40 42 39 40 39 32 31 28 21 19 18 22 27 20 17 15
9 11 6 7 12 12 6 7 11 7 2 5 11 2 10 11 17 9 12 18 7 25 21 26 36 33 33 36 38 42 41 41 41 38 31 31 27 24 19 23 26 25 22 18
6 10 11 11 9 6 7 4 3 4 5 10 8 7 10 6 21 26 30 26 33 32 13 22 25 29 31 37 39 41 41 41 44 41 36 33 32 30 19 22 24 30 25 22
4 9 8 4 6 6 7 7 5 7 5 9 9 8 9 12 14 25 31 33 23 23 19 27 27 34 35 39 41 41 42 39 43 45 44 36 34 33 29 13 26 30 27 25
7 6 17 15 16 13 9 7 8 6 9 7 6 9 18 11 9 18 24 21 21 21 20 23 26 36 38 37 42 43 43 40 40 43 44 41 37 37 33 27 18 29 26 26
8 5 6 14 15 10 9 5 3 3 7 12 5 11 6 6 13 14 20 24 23 15 8 10 4 28 40 40 38 38 41 42 41 39 42 41 40 40 38 32 23 22 25 20
5 3 9 9 4 9 12 3 4 2 3 10 9 7 9 8 7 18 19 27 24 16 16 13 8 13 28 40 38 39 38 41 39 41 38 39 41 39 36 33 31 26 23 19
9 4 5 13 18 17 15 12 9 4 8 4 3 6 23 13 19 31 12 25 26 21 14 9 7 14 20 33 39 42 40 42 43 42 38 39 39 40 42 36 36 31 29 25
7 4 4 9 9 1 6 12 13 2 3 9 5 5 12 14 16 20 23 23 16 19 19 21 17 21 25 41 40 43 43 44 44 41 41 37 37 42 42 42 36 38 32 33
6 3 4 5 11 10 12 22 22 11 6 9 10 12 10 13 15 19 18 23 17 22 24 23 21 21 27 35 31 35 41 41 43 43 41 40 40 38 40 38 42 36 38 37
4 4 8 14 17 16 17 19 23 20 11 3 10 11 3 6 11 13 12 16 20 13 4 2 4 12 36 20 11 11 31 38 40 40 40 41 39 38 34 37 38 45 36 41
1 5 7 13 17 19 20 18 19 21 19 11 12 15 7 8 13 15 12 11 13 10 6 5 13 12 6 18 21 9 17 35 39 40 40 39 38 39 39 36 34 39 42 39
1 2 3 5 10 15 15 14 16 20 19 11 10 5 10 11 14 16 14 10 13 12 17 4 3 9 13 14 20 14 30 32 38 39 39 40 40 39 40 37 36 36 40 38
7 4 4 4 4 5 7 16 17 19 20 16 12 9 13 14 14 10 18 8 14 15 19 15 8 15 16 17 16 25 14 20 40 37 38 39 40 40 38 38 38 36 35 40
6 2 2 3 4 8 11 5 11 10 8 17 19 17 16 15 10 9 27 25 3 5 14 22 26 20 16 12 7 10 18 29 12 32 38 39 40 39 37 39 38 37 34 33
10 6 4 2 4 5 6 7 11 8 2 17 17 13 15 14 6 7 22 23 9 16 24 19 31 22 24 20 17 13 5 5 24 30 34 38 40 39 39 41 38 37 36 35
5 2 6 7 5 5 14 14 4 7 6 15 14 11 11 7 3 14 17 19 20 17 20 22 21 18 22 26 22 13 9 16 36 30 32 36 39 39 40 37 38 36 34 33
3 4 3 4 6 5 20 10 7 8 14 13 12 13 10 6 12 14 15 19 14 14 22 24 21 20 22 28 29 24 17 25 20 18 30 34 37 38 36 38 35 35 33 32
1 2 3 2 5 11 10 11 11 13 12 15 15 15 13 7 6 11 13 13 12 14 16 21 21 21 23 25 25 22 26 28 27 22 27 34 34 37 35 37 35 33 32 31
2 3 2 4 3 13 14 10 13 16 15 16 17 18 18 15 5 7 9 11 9 15 13 16 17 18 19 25 25 24 27 28 27 27 21 32 34 31 33 34 35 34 33 32
3 4 3 5 9 15 3 14 15 16 17 17 17 21 23 15 8 7 5 7 8 11 17 14 16 17 19 23 24 25 26 25 27 30 20 29 30 33 30 29 33 33 35 35
3 4 2 3 6 8 11 12 16 15 16 17 21 26 14 13 10 7 5 7 6 12 14 14 14 17 20 24 24 25 26 23 25 26 10 19 23 25 26 28 25 35 35 36
Wind_Direction
218 239 217 227 246 254 269 279 288 279 246 241 202 151 177 169 138 153 186 246 209 194 206 185 164 165 168 162 163 163 167 172 169 180 183 188 162 167 167 168 171 157 170 161
239 228 241 223 241 236 254 269 281 288 289 187 228 167 165 168 162 168 186 183 222 185 192 193 170 167 165 167 168 169 172 174 174 177 186 195 188 182 197 189 182 172 170 177
221 235 223 237 241 244 247 244 270 278 301 310 235 76 147 194 161 174 155 176 316 180 189 192 176 171 166 169 171 176 176 180 177 176 183 194 199 195 188 187 180 175 168 183
228 231 251 224 235 248 257 262 259 268 290 279 26 281 212 183 164 167 165 80 350 346 186 191 183 174 173 172 175 178 180 185 182 180 185 198 199 197 191 177 184 183 178 193
257 224 245 245 251 218 250 278 282 283 287 306 295 26 263 158 148 213 143 79 304 296 243 190 189 178 177 173 177 178 181 185 187 183 189 196 205 204 204 186 190 179 182 194
298 311 288 261 276 262 270 251 274 295 320 292 268 171 280 171 186 156 132 125 284 258 249 193 188 185 176 174 176 179 180 186 188 189 192 198 202 203 209 196 187 187 189 190
275 265 277 293 314 280 261 288 306 296 284 255 266 265 235 266 187 168 168 183 192 212 227 196 186 186 176 175 179 182 182 183 190 192 193 199 203 208 210 202 198 187 190 193
293 313 216 256 226 262 253 208 181 229 232 263 250 263 262 251 177 174 179 188 202 196 204 198 185 186 186 180 181 184 187 185 188 195 200 198 203 210 213 201 193 185 192 197
4 285 339 325 332 237 255 264 240 240 275 279 274 277 258 249 272 176 182 187 200 209 202 190 185 183 188 185 187 186 187 189 188 194 200 203 201 207 216 219 198 200 202 208
345 336 336 337 333 327 187 236 308 288 223 259 287 288 268 267 237 195 201 187 193 192 135 133 26 192 187 191 193 190 187 189 190 192 200 203 203 206 211 216 211 206 202 205
41 44 299 334 314 335 337 289 294 262 240 243 264 269 259 247 328 295 198 192 186 179 161 155 158 251 209 190 190 192 187 188 191 192 196 201 207 207 212 212 209 214 211 217
9 298 320 293 296 303 300 288 239 191 278 245 209 272 279 320 4 352 231 189 180 179 149 144 137 273 273 214 189 190 189 188 191 193 194 199 203 206 212 213 213 210 214 216
354 328 346 320 320 314 327 330 312 263 308 266 255 252 339 16 14 3 1 20 187 160 154 150 179 199 240 261 195 190 191 190 189 190 194 195 199 204 209 212 213 218 217 217
359 288 270 262 288 329 317 318 321 312 242 269 267 262 7 358 6 0 4 8 11 163 164 167 166 167 226 232 198 200 195 189 188 189 192 196 199 202 207 211 214 213 220 221
35 288 304 296 295 303 298 301 305 306 293 255 286 292 331 3 357 357 14 17 20 69 61 350 230 239 187 167 165 175 209 194 188 190 193 197 199 201 203 206 212 215 218 220
345 314 329 299 298 297 284 279 287 291 290 296 299 295 321 11 10 359 357 9 10 5 41 168 253 217 241 185 171 213 248 209 192 191 196 197 196 199 203 202 205 213 213 218
147 164 353 276 311 312 287 269 279 280 285 281 288 323 358 9 16 349 340 10 353 350 334 52 340 168 194 183 138 232 258 245 197 198 197 196 196 197 200 202 203 210 211 215
262 189 155 288 288 276 267 321 290 283 288 319 291 13 20 14 353 352 344 338 315 356 2 1 16 38 54 186 224 205 225 293 196 196 198 197 197 198 197 198 202 206 208 214
267 219 247 188 221 267 289 301 16 2 320 30 32 25 5 353 358 28 349 339 172 32 5 350 343 354 358 47 164 167 256 252 264 189 196 195 196 196 195 198 201 204 206 209
10 22 163 330 255 255 62 332 313 340 255 8 20 29 10 353 39 346 337 341 335 304 302 2 346 11 35 34 22 23 355 315 308 229 193 195 193 195 195 198 200 202 207 211
312 304 248 221 240 283 346 328 293 278 336 345 354 3 13 9 335 302 331 333 355 14 4 4 1 16 22 11 9 50 19 239 258 217 199 195 194 196 197 196 198 201 204 210
325 338 329 302 219 258 4 15 9 326 317 320 331 332 340 1 324 325 336 334 352 353 352 354 358 5 16 9 1 353 2 342 326 265 209 199 197 197 194 193 195 200 202 206
63 77 296 268 295 3 1 319 343 352 334 319 321 319 310 306 309 315 322 329 336 351 345 353 357 4 4 1 358 344 341 340 331 319 226 207 200 197 196 192 193 195 201 206
265 78 242 304 28 334 323 351 341 329 319 304 297 309 299 291 280 295 301 313 327 337 337 354 3 1 354 351 351 344 341 341 336 320 263 207 203 194 195 193 194 194 201 207
239 307 276 256 276 311 239 332 327 321 318 309 300 299 280 259 250 250 281 296 320 350 347 359 7 360 348 345 343 346 343 347 342 324 247 203 200 196 195 192 194 200 208 207
210 225 208 262 315 305 301 312 325 315 313 310 325 302 235 222 237 213 236 287 51 8 3 12 10 354 342 338 340 344 350 354 352 337 337 201 195 194 196 199 198 207 212 216
Height
738 758 768 761 754 753 752 754 756 736 716 723 729 754 759 769 774 778 788 791 783 778 776 776 781 786 792 797 802 807 814 821 826 830 833 837 840 841 843 845 848 850 852 854
754 766 747 740 743 748 751 755 752 730 712 722 727 748 747 753 761 761 760 771 776 772 775 775 779 783 788 793 799 805 811 819 823 828 832 835 838 840 842 844 847 849 850 852
759 748 735 739 745 749 749 757 750 748 722 715 721 760 756 753 752 758 752 759 774 763 771 772 776 780 785 789 795 801 807 814 820 825 830 834 836 839 841 844 846 848 850 852
745 733 736 743 746 742 765 732 730 733 744 773 725 785 763 757 759 756 758 761 772 783 762 768 772 777 780 785 791 797 803 810 816 821 825 829 832 834 837 840 844 847 849 851
746 737 737 741 736 728 745 727 734 736 745 751 740 770 749 747 767 761 748 756 766 768 769 759 765 770 776 782 787 793 798 806 812 816 820 825 829 832 835 838 842 844 847 850
738 718 725 727 718 718 718 732 739 742 755 786 755 763 753 759 741 754 753 747 752 761 765 751 757 766 773 779 784 789 794 800 806 812 816 820 824 828 831 835 839 842 846 848
743 738 723 719 737 720 728 752 793 797 794 783 753 762 749 722 719 728 737 745 727 738 749 747 753 758 765 772 778 783 788 793 800 806 811 815 819 823 828 830 834 837 843 845
767 772 735 718 733 743 742 754 790 806 803 779 753 769 740 707 705 716 723 722 723 718 730 735 742 749 757 765 771 777 782 787 792 799 805 810 814 819 824 828 831 834 838 841
774 763 735 729 728 726 745 759 739 768 764 776 760 737 712 703 703 708 720 726 725 726 724 726 730 738 749 759 764 768 776 782 787 792 799 805 809 814 818 823 828 831 834 837
766 785 751 739 732 720 732 728 768 766 795 794 769 756 751 719 712 704 706 711 710 720 719 722 740 739 737 749 760 768 772 777 781 788 793 799 804 809 813 819 823 827 831 835
761 775 774 758 754 760 754 751 749 757 766 778 787 763 715 711 710 702 686 688 694 707 708 717 730 735 738 740 752 763 768 772 778 782 788 794 799 805 810 814 819 823 827 829
777 784 794 777 752 746 751 757 751 776 778 764 769 763 691 703 706 697 674 671 678 689 694 706 703 719 738 746 742 751 759 764 768 775 782 787 794 800 805 809 814 818 822 826
789 795 805 790 768 750 761 748 747 744 754 768 775 760 712 713 711 712 703 699 684 693 701 709 724 725 741 755 737 740 748 752 759 767 774 781 786 791 795 801 807 813 817 822
786 798 804 809 791 783 781 769 758 757 767 764 751 744 737 725 721 717 708 702 694 692 700 712 725 737 742 749 736 740 741 745 751 757 765 772 777 782 789 796 802 807 811 816
797 806 801 792 784 781 779 777 771 770 760 764 751 744 738 726 720 719 715 713 713 719 729 727 732 720 709 725 730 728 739 740 747 753 758 763 770 778 783 789 794 801 806 810
794 810 806 803 791 784 780 772 769 764 752 749 746 743 727 718 711 715 717 718 725 731 725 724 717 713 718 714 714 718 730 736 738 746 752 759 764 771 775 780 787 793 799 803
804 812 814 815 801 795 792 774 770 761 750 748 758 748 732 733 726 725 722 726 728 729 725 720 723 714 711 712 704 706 723 734 731 737 746 752 757 762 767 773 780 784 790 796
803 810 813 820 809 820 782 768 760 758 749 744 737 742 738 741 732 725 723 723 727 729 724 719 717 715 713 714 716 721 725 726 721 730 738 745 750 755 761 766 771 777 782 787
790 800 812 819 812 795 781 765 764 768 766 760 756 751 749 737 732 732 738 727 720 723 721 722 720 716 721 720 719 720 719 735 729 719 729 734 742 749 754 759 763 769 775 780
798 804 815 819 812 800 776 771 759 759 775 765 764 765 765 751 760 759 747 733 728 726 727 726 726 720 721 727 721 713 717 711 711 723 721 727 733 740 744 749 755 761 768 772
813 807 810 811 809 792 787 774 761 781 793 779 775 773 773 775 776 766 755 744 738 731 730 729 728 727 724 723 722 724 720 718 720 720 716 720 723 730 735 743 749 754 760 765
820 822 811 805 801 806 795 783 794 799 788 783 781 779 779 777 770 766 760 753 744 739 738 734 730 728 727 725 723 716 718 718 715 711 711 713 717 724 729 735 741 747 752 757
824 828 830 826 808 801 807 809 803 802 797 786 784 780 777 775 773 770 761 759 752 752 749 742 736 732 731 731 729 724 717 712 707 704 704 706 713 718 722 726 732 739 744 749
823 828 830 826 802 806 807 805 804 800 796 790 784 779 780 772 769 769 764 758 757 754 749 742 738 734 734 731 727 724 719 711 705 703 702 703 707 710 715 719 724 729 735 739
829 829 825 821 813 808 800 805 803 795 790 784 782 778 768 766 763 763 762 758 757 756 752 746 741 740 738 734 728 725 720 713 705 701 695 696 699 703 708 711 715 720 724 729
826 824 826 825 816 816 808 802 798 795 790 784 773 756 749 753 755 755 758 757 758 756 756 749 746 744 741 737 730 725 721 712 705 700 693 691 693 697 701 705 709 713 717 722